Location: Blue Mountain Vista Observatory
(40.6992°N, 75.9422°W)
Time: 18:15:05
(UTC-04:00)

Amateur Radio Satellites - All Passes

Search period start: 01 August 2015 17:45
Search period end: 02 August 2015 17:45
Location: Blue Mountain Vista Observatory, 40.6992°N, 75.9422°W

Satellite Date Start Highest point End Downlink Frequencies (MHz)
Time Altitude Azimuth
STARS 01 Aug 17:47:12 17:50:07 17° 294° (WNW) 17:52:53 437.465
Cosmos 2499 01 Aug 17:48:56 17:55:30 24° 64° (ENE) 18:02:28 435.465 / 435.565
CUTE-I 01 Aug 18:18:17 18:23:36 65° 73° (ENE) 18:28:55 437.470
GONETS M04 01 Aug 18:20:30 18:29:06 65° 267° (W) 18:37:41
VERMONT LUNAR 01 Aug 18:50:46 18:53:46 40° 160° (SSE) 18:56:48 437.305
Cubesat XI-IV 01 Aug 19:02:38 19:07:51 50° 261° (W) 19:13:05 437.490
MOZHAYETS 4 01 Aug 19:10:03 19:12:04 12° 297° (WNW) 19:13:53
SO-50 01 Aug 19:12:54 19:17:37 44° 244° (WSW) 19:22:10 436.795
PHONESAT 2.4 01 Aug 19:14:00 19:15:32 13° 147° (SSE) 19:17:11 2401.200-2431.200
PCSat 01 Aug 19:24:42 19:29:52 45° 247° (WSW) 19:34:58 145.827
CUBESAT XI-V 01 Aug 19:26:06 19:30:44 83° 284° (WNW) 19:35:18 437.345
Cosmos 2499 01 Aug 19:40:55 19:49:42 78° 265° (W) 19:58:33 435.465 / 435.565
DOVE 4 01 Aug 19:44:46 19:47:30 18° 67° (ENE) 19:50:23 437.250
BRITE-PL 01 Aug 19:49:01 19:53:21 60° 75° (ENE) 19:57:30 437.365/2234.400
GOMX 1 01 Aug 19:57:31 20:01:28 41° 73° (ENE) 20:05:24 467.674
SEEDS 01 Aug 19:59:22 20:02:08 17° 67° (ENE) 20:05:01 437.485
CUTE-I 01 Aug 20:00:56 20:04:13 16° 271° (W) 20:07:16 437.470
CUTE 1.7 + AOD 2 01 Aug 20:02:27 20:05:47 23° 69° (ENE) 20:09:13 437.475
HO-68 01 Aug 20:05:01 20:11:43 47° 67° (ENE) 20:18:31 435.675
STRAND 1 01 Aug 20:07:46 20:12:53 72° 102° (ESE) 20:17:57 437.568
CANX-2 01 Aug 20:10:27 20:14:11 31° 71° (ENE) 20:18:01 2200.000
PRISM 01 Aug 20:18:27 20:22:35 83° 102° (ESE) 20:26:40 437.425
GONETS M04 01 Aug 20:22:45 20:24:26 10° 285° (WNW) 20:25:20
AAUSAT CUBESAT 2 01 Aug 20:23:58 20:27:07 21° 68° (ENE) 20:30:22 437.432
VERMONT LUNAR 01 Aug 20:27:12 20:30:23 88° 180° (S) 20:33:35 437.305
ISS 01 Aug 20:33:49 20:36:28 23° 134° (SE) 20:39:09 145.825
PHONESAT 2.4 01 Aug 20:49:39 20:53:02 46° 161° (SSE) 20:56:25 2401.200-2431.200
RS-15 01 Aug 20:59:24 21:09:12 43° 109° (ESE) 21:19:28 29.354- 29.394
ZACube-1 01 Aug 21:11:39 21:14:40 20° 67° (ENE) 21:17:50 437.345
COMPASS 1 01 Aug 21:17:16 21:21:29 81° 257° (WSW) 21:25:45 437.405
DOVE 4 01 Aug 21:21:14 21:25:05 36° 263° (W) 21:28:54 437.250
CINEMA 3 01 Aug 21:25:43 21:29:51 78° 258° (WSW) 21:34:06 145.822/145.860
BRITE-PL 01 Aug 21:31:05 21:32:21 11° 271° (W) 21:33:19 437.365/2234.400
FUNcube-1 01 Aug 21:32:16 21:35:58 31° 71° (ENE) 21:39:48 145.935
SEEDS 01 Aug 21:33:36 21:37:37 41° 262° (W) 21:41:40 437.485
UWE-3 01 Aug 21:35:45 21:39:45 46° 73° (ENE) 21:43:53 435.000/436.395/437.385
Cosmos 2499 01 Aug 21:36:54 21:41:41 15° 282° (WNW) 21:45:54 435.465 / 435.565
GOMX 1 01 Aug 21:37:20 21:39:54 15° 269° (W) 21:42:16 467.674
CUTE 1.7 + AOD 2 01 Aug 21:37:46 21:41:34 30° 265° (W) 21:45:21 437.475
DELFI C3 01 Aug 21:40:15 21:44:06 43° 73° (ENE) 21:48:01 145.870
AUBIESAT-1 01 Aug 21:41:28 21:43:08 12° 92° (E) 21:45:03 437.475
Oscar 11 01 Aug 21:43:25 21:47:44 74° 76° (ENE) 21:52:06 145.826/435.025
CANX-2 01 Aug 21:46:47 21:50:11 22° 267° (W) 21:53:29 2200.000
UKube-1 01 Aug 21:47:15 21:49:23 14° 64° (ENE) 21:51:42 .
STRAND 1 01 Aug 21:48:43 21:51:32 15° 298° (WNW) 21:54:08 437.568
CUBEBUG 2 01 Aug 21:52:24 21:56:35 87° 254° (WSW) 22:00:53 437.445
HUMSAT D 01 Aug 21:53:06 21:56:20 23° 69° (ENE) 21:59:41 437.325/437.525
HO-68 01 Aug 21:53:17 21:59:39 33° 265° (W) 22:05:56 435.675
AISAT 01 Aug 21:55:18 21:56:33 11° 63° (ENE) 21:58:02 437.250
AAUSAT CUBESAT 2 01 Aug 21:58:46 22:02:32 32° 264° (W) 22:06:19 437.432
VERMONT LUNAR 01 Aug 22:03:56 22:07:05 63° 194° (SSW) 22:10:14 437.305
ISS 01 Aug 22:09:41 22:12:46 39° 330° (NNW) 22:15:51 145.825
DX 1 01 Aug 22:14:33 22:18:16 29° 70° (ENE) 22:22:04 434.975-435.025
UNISAT 6 01 Aug 22:22:31 22:24:07 12° 88° (E) 22:26:00 437.425
Cosmos 2491 01 Aug 22:26:49 22:33:26 24° 64° (ENE) 22:40:22 435.465 / 435.565
PHONESAT 2.4 01 Aug 22:27:23 22:30:54 88° 179° (S) 22:34:26 2401.200-2431.200
VELOX 1 01 Aug 22:31:29 22:35:07 26° 69° (ENE) 22:38:48 145.980
BEESAT 3 01 Aug 22:38:56 22:40:49 13° 110° (ESE) 22:42:53 437.485
M-CUBED/EXP-1 PRIME 01 Aug 22:44:52 22:49:41 67° 105° (ESE) 22:54:20 437.505
ESTCUBE 1 01 Aug 22:45:39 22:49:22 26° 69° (ENE) 22:53:12 437.505/2401.250
ZACube-1 01 Aug 22:46:57 22:50:49 35° 264° (W) 22:54:44 437.345
YUBILEINY 01 Aug 22:53:03 22:55:42 12° 76° (ENE) 22:59:05 435.215
QB50P1 01 Aug 23:03:22 23:04:08 11° 88° (E) 23:05:11 145.935-145.965
TIGRISAT 01 Aug 23:03:32 23:07:42 31° 96° (E) 23:11:55 435.000
50 SAT 01 Aug 23:04:04 23:07:56 68° 75° (ENE) 23:11:50 437.505
NANOSAT C BR1 01 Aug 23:04:17 23:05:05 11° 88° (E) 23:06:10 145.865
ANTELSAT 01 Aug 23:05:33 23:09:49 34° 96° (E) 23:14:09 437.575/2403.000
FUNcube-1 01 Aug 23:09:09 23:12:23 21° 268° (W) 23:15:35 145.935
RS-15 01 Aug 23:10:34 23:21:19 57° 312° (NW) 23:32:28 29.354- 29.394
AUBIESAT-1 01 Aug 23:13:39 23:18:26 73° 289° (WNW) 23:23:00 437.475
UWE-3 01 Aug 23:14:17 23:16:38 14° 271° (W) 23:18:50 435.000/436.395/437.385
DELFI C3 01 Aug 23:17:10 23:19:27 14° 270° (W) 23:21:34 145.870
UKube-1 01 Aug 23:20:51 23:25:06 56° 259° (W) 23:29:22 .
AISAT 01 Aug 23:28:11 23:32:35 73° 258° (WSW) 23:37:00 437.250
HUMSAT D 01 Aug 23:28:18 23:31:57 29° 265° (W) 23:35:36 437.325/437.525
BEESAT 2 01 Aug 23:35:38 23:39:30 42° 117° (ESE) 23:43:26 435.950
CUBEBUG 1 01 Aug 23:40:09 23:44:31 83° 77° (ENE) 23:48:52 437.445
VERMONT LUNAR 01 Aug 23:41:10 23:43:29 19° 208° (SSW) 23:45:46 437.305
POLYITAN 1 01 Aug 23:44:18 23:48:09 32° 96° (E) 23:52:03 437.675
ISS 01 Aug 23:48:05 23:49:54 14° 350° (N) 23:51:41 145.825
AIST 1 01 Aug 23:49:41 23:53:56 67° 265° (W) 23:58:08
DX 1 01 Aug 23:50:57 23:54:32 24° 265° (W) 23:58:03 434.975-435.025
UNISAT 6 01 Aug 23:56:45 00:01:27 70° 285° (WNW) 00:06:08 437.425
POPSAT HIP 1 02 Aug 00:00:52 00:05:01 49° 99° (E) 00:09:11 437.405
BUGSAT 1 02 Aug 00:01:28 00:05:02 29° 96° (E) 00:08:40 437.445
PHONESAT 2.4 02 Aug 00:05:22 00:08:50 61° 195° (SSW) 00:12:18 2401.200-2431.200
VELOX 1 02 Aug 00:07:45 00:11:35 28° 264° (W) 00:15:23 145.980
QB50P2 02 Aug 00:08:39 00:12:54 63° 100° (E) 00:17:09 145.880/145.840
SPROUT 02 Aug 00:13:28 00:17:37 55° 74° (ENE) 00:21:49 437.525
BEESAT 3 02 Aug 00:14:20 00:18:20 55° 305° (NW) 00:22:22 437.485
M-CUBED/EXP-1 PRIME 02 Aug 00:20:58 00:23:56 16° 301° (WNW) 00:26:42 437.505
ESTCUBE 1 02 Aug 00:22:10 00:26:10 29° 265° (W) 00:30:07 437.505/2401.250
TISAT 1 02 Aug 00:22:32 00:26:28 42° 72° (ENE) 00:30:27 437.305
Cosmos 2491 02 Aug 00:22:36 00:31:18 72° 266° (W) 00:39:55 435.465 / 435.565
DUCHIFAT 1 02 Aug 00:32:23 00:36:38 74° 285° (WNW) 00:40:53 145.980
QB50P1 02 Aug 00:36:16 00:40:30 64° 285° (WNW) 00:44:42 145.935-145.965
NANOSAT C BR1 02 Aug 00:37:11 00:41:24 63° 285° (WNW) 00:45:36 145.865
TIGRISAT 02 Aug 00:40:23 00:44:20 27° 291° (WNW) 00:48:13 435.000
YUBILEINY 02 Aug 00:42:30 00:51:07 72° 94° (E) 00:59:50 435.215
ANTELSAT 02 Aug 00:42:36 00:46:28 25° 292° (WNW) 00:50:12 437.575/2403.000
O/OREOS (USA 219) 02 Aug 01:03:34 01:07:09 24° 103° (ESE) 01:10:50 437.305
AIST 2 02 Aug 01:13:13 01:17:28 78° 302° (WNW) 01:21:45 435.215
BEESAT 2 02 Aug 01:14:36 01:17:45 20° 315° (NW) 01:20:51 435.950
BEESAT 02 Aug 01:20:12 01:24:24 32° 69° (ENE) 01:28:41 436.000
POLYITAN 1 02 Aug 01:20:34 01:23:54 22° 292° (WNW) 01:27:07 437.675
ISS 02 Aug 01:25:34 01:27:21 14° 10° (N) 01:29:10 145.825
RS-15 02 Aug 01:28:29 01:37:03 24° 343° (NNW) 01:45:44 29.354- 29.394
BUGSAT 1 02 Aug 01:37:12 01:40:23 22° 291° (WNW) 01:43:29 437.445
POPSAT HIP 1 02 Aug 01:38:00 01:40:32 15° 294° (WNW) 01:42:54 437.405
SWISSCUBE 02 Aug 01:40:20 01:45:01 56° 73° (ENE) 01:49:45 437.505
PHONESAT 2.4 02 Aug 01:43:53 01:46:26 19° 210° (SSW) 01:48:57 2401.200-2431.200
QB50P2 02 Aug 01:46:33 01:48:20 12° 296° (WNW) 01:49:55 145.880/145.840
SPROUT 02 Aug 01:52:14 01:54:07 12° 271° (W) 01:55:48 437.525
Cosmos 2504 02 Aug 01:55:03 02:00:09 22° 82° (E) 02:05:46 435.465 / 435.565
Oscar 19 02 Aug 01:59:12 02:03:54 35° 96° (E) 02:08:39 437.125/150
TISAT 1 02 Aug 01:59:54 02:02:29 15° 269° (W) 02:04:55 437.305
KKS-1 02 Aug 02:01:07 02:03:16 14° 64° (ENE) 02:05:37 437.445
ITUPSAT 1 02 Aug 02:01:35 02:06:24 83° 75° (ENE) 02:11:15 437.325
Cosmos 2491 02 Aug 02:23:17 02:26:46 12° 284° (WNW) 02:29:34 435.465 / 435.565
YUBILEINY 02 Aug 02:41:55 02:48:54 25° 296° (WNW) 02:55:38 435.215
O/OREOS (USA 219) 02 Aug 02:42:26 02:46:27 31° 300° (WNW) 02:50:28 437.305
AIST 2 02 Aug 02:55:15 02:56:48 11° 323° (NW) 02:58:13 435.215
BEESAT 02 Aug 02:58:12 03:02:17 26° 266° (W) 03:06:17 436.000
ISS 02 Aug 03:01:24 03:04:29 38° 29° (NNE) 03:07:34 145.825
Gurwin Techsat 1B 02 Aug 03:04:54 03:09:58 44° 98° (E) 03:15:02 435.225
STARS 02 Aug 03:06:19 03:10:22 39° 71° (ENE) 03:14:28 437.465
AO-7 02 Aug 03:15:35 03:17:06 11° 83° (E) 03:19:25 29.400- 29.500
JAS-2 02 Aug 03:20:10 03:26:55 32° 91° (E) 03:33:42 435.910
SWISSCUBE 02 Aug 03:20:24 03:23:18 15° 270° (W) 03:25:59 437.505
ITAMSAT 1 02 Aug 03:21:54 03:26:59 55° 100° (E) 03:32:03 435.822/435.867
KKS-1 02 Aug 03:35:06 03:39:28 59° 259° (W) 03:43:50 437.445
Oscar 19 02 Aug 03:38:44 03:43:09 29° 293° (WNW) 03:47:30 437.125/150
Cosmos 2504 02 Aug 03:44:35 03:51:39 64° 281° (WNW) 03:59:16 435.465 / 435.565
RS-15 02 Aug 03:46:17 03:54:56 24° 18° (NNE) 04:04:04 29.354- 29.394
MOZHAYETS 4 02 Aug 04:32:04 04:36:39 64° 75° (ENE) 04:41:17
HORYU 2 02 Aug 04:33:00 04:37:12 38° 98° (E) 04:41:24 437.375
ISS 02 Aug 04:38:05 04:40:48 24° 226° (SW) 04:43:29 145.825
STARS 02 Aug 04:43:55 04:47:00 18° 268° (W) 04:49:58 437.465
DANDE 02 Aug 04:44:54 04:48:06 52° 99° (E) 04:50:48 436.750
Gurwin Techsat 1B 02 Aug 04:45:28 04:49:43 24° 294° (WNW) 04:53:50 435.225
CUBESAT XI-V 02 Aug 04:56:28 04:56:43 10° 62° (ENE) 04:57:14 437.345
CUSAT 1 02 Aug 04:58:32 05:01:16 39° 282° (WNW) 05:03:45 437.405
ITAMSAT 1 02 Aug 05:02:28 05:06:06 19° 296° (WNW) 05:09:35 435.822/435.867
AO-7 02 Aug 05:03:25 05:11:43 67° 104° (ESE) 05:19:59 29.400- 29.500
JAS-2 02 Aug 05:04:37 05:12:17 57° 290° (WNW) 05:19:46 435.910
GONETS M04 02 Aug 05:25:46 05:32:56 31° 85° (E) 05:40:19
Cosmos 2504 02 Aug 05:44:33 05:45:59 10° 306° (NW) 05:46:50 435.465 / 435.565
STRAND 1 02 Aug 05:47:38 05:49:48 13° 61° (ENE) 05:52:14 437.568
RS-15 02 Aug 05:59:23 06:10:50 56° 48° (NE) 06:22:47 29.354- 29.394
HORYU 2 02 Aug 06:10:11 06:13:36 21° 293° (WNW) 06:16:55 437.375
MOZHAYETS 4 02 Aug 06:12:20 06:14:24 12° 272° (W) 06:16:14
Cosmos 2499 02 Aug 06:28:46 06:32:17 15° 78° (ENE) 06:36:26 435.465 / 435.565
CUBESAT XI-V 02 Aug 06:28:49 06:33:31 89° 277° (W) 06:38:13 437.345
CUTE-I 02 Aug 06:36:18 06:40:38 26° 94° (E) 06:45:05 437.470
JAS-2 02 Aug 06:52:51 06:55:53 12° 307° (NW) 06:58:26 435.910
AO-7 02 Aug 06:57:04 07:04:00 29° 303° (WNW) 07:10:42 29.400- 29.500
BEESAT 3 02 Aug 06:57:30 06:58:20 11° 37° (NE) 06:59:20 437.485
PRISM 02 Aug 07:07:48 07:11:55 57° 73° (ENE) 07:16:02 437.425
Cubesat XI-IV 02 Aug 07:20:01 07:25:20 67° 101° (ESE) 07:30:37 437.490
GONETS M04 02 Aug 07:20:52 07:29:23 56° 284° (WNW) 07:37:53
STRAND 1 02 Aug 07:23:15 07:28:24 82° 257° (WSW) 07:33:35 437.568
BRITE-PL 02 Aug 07:53:54 07:57:01 19° 93° (E) 08:00:26 437.365/2234.400
BEESAT 2 02 Aug 07:55:06 07:58:31 26° 48° (NE) 08:01:57 435.950
GOMX 1 02 Aug 08:00:06 08:02:13 13° 90° (E) 08:04:40 467.674
RS-15 02 Aug 08:12:10 08:23:19 48° 249° (WSW) 08:34:35 29.354- 29.394
CUTE-I 02 Aug 08:15:56 08:20:52 39° 291° (WNW) 08:25:44 437.470
Cosmos 2499 02 Aug 08:16:49 08:24:13 87° 98° (E) 08:32:18 435.465 / 435.565
PCSat 02 Aug 08:23:41 08:27:54 24° 108° (ESE) 08:32:15 145.827
AUBIESAT-1 02 Aug 08:28:17 08:30:31 15° 58° (ENE) 08:32:59 437.475
BEESAT 3 02 Aug 08:32:58 08:37:02 79° 57° (ENE) 08:41:01 437.485
PRISM 02 Aug 08:46:11 08:47:46 12° 271° (W) 08:49:06 437.425
Cubesat XI-IV 02 Aug 09:01:34 09:04:56 17° 298° (WNW) 09:08:06 437.490
COMPASS 1 02 Aug 09:02:05 09:04:44 17° 91° (E) 09:07:31 437.405
SEEDS 02 Aug 09:18:09 09:21:59 32° 96° (E) 09:25:48 437.485
DOVE 4 02 Aug 09:19:03 09:23:38 55° 100° (E) 09:28:29 437.250
HO-68 02 Aug 09:20:07 09:27:02 49° 100° (E) 09:33:59 435.675
CINEMA 3 02 Aug 09:20:33 09:24:29 26° 94° (E) 09:28:38 145.822/145.860
CUTE 1.7 + AOD 2 02 Aug 09:22:41 09:26:49 45° 98° (E) 09:30:57 437.475
UNISAT 6 02 Aug 09:23:08 09:23:30 10° 62° (ENE) 09:24:08 437.425
SO-50 02 Aug 09:26:17 09:30:59 68° 120° (ESE) 09:35:52 436.795
UWE-3 02 Aug 09:28:11 09:29:08 11° 87° (E) 09:30:24 435.000/436.395/437.385
CANX-2 02 Aug 09:31:10 09:35:27 65° 101° (E) 09:39:43 2200.000
BRITE-PL 02 Aug 09:31:36 09:35:44 39° 287° (WNW) 09:40:06 437.365/2234.400
M-CUBED/EXP-1 PRIME 02 Aug 09:32:22 09:36:25 78° 71° (ENE) 09:40:51 437.505
Oscar 11 02 Aug 09:32:39 09:34:49 14° 89° (E) 09:37:12 145.826/435.025
BEESAT 2 02 Aug 09:32:59 09:36:34 30° 245° (WSW) 09:40:04 435.950
AIST 2 02 Aug 09:35:15 09:39:25 60° 55° (NE) 09:43:30 435.215
GOMX 1 02 Aug 09:36:15 09:40:45 61° 285° (WNW) 09:45:32 467.674
AAUSAT CUBESAT 2 02 Aug 09:41:31 09:45:28 39° 97° (E) 09:49:23 437.432
CUBEBUG 2 02 Aug 09:44:01 09:47:33 22° 93° (E) 09:51:15 437.445
AUBIESAT-1 02 Aug 10:00:41 10:04:41 59° 255° (WSW) 10:09:03 437.475
TIGRISAT 02 Aug 10:02:26 10:06:00 26° 68° (ENE) 10:09:43 435.000
ANTELSAT 02 Aug 10:04:36 10:08:17 28° 69° (ENE) 10:12:09 437.575/2403.000
PCSat 02 Aug 10:05:50 10:11:03 47° 305° (NW) 10:16:18 145.827
Cosmos 2499 02 Aug 10:13:48 10:18:49 18° 300° (WNW) 10:23:40 435.465 / 435.565
ZACube-1 02 Aug 10:35:07 10:39:29 44° 98° (E) 10:43:53 437.345
COMPASS 1 02 Aug 10:36:38 10:40:37 40° 288° (WNW) 10:44:32 437.405
POLYITAN 1 02 Aug 10:37:23 10:40:44 24° 69° (ENE) 10:44:11 437.675
BUGSAT 1 02 Aug 10:51:50 10:54:48 20° 68° (ENE) 10:57:50 437.445
YUBILEINY 02 Aug 10:53:20 11:01:09 35° 69° (ENE) 11:09:06 435.215
POPSAT HIP 1 02 Aug 10:53:26 10:57:14 35° 71° (ENE) 11:01:05 437.405
DELFI C3 02 Aug 10:54:10 10:58:15 79° 103° (ESE) 11:02:16 145.870
SEEDS 02 Aug 10:54:17 10:57:36 22° 292° (WNW) 11:00:47 437.485
UNISAT 6 02 Aug 10:55:17 10:59:38 81° 257° (WSW) 11:04:08 437.425
FUNcube-1 02 Aug 10:56:08 11:00:41 73° 101° (ESE) 11:05:16 145.935
CINEMA 3 02 Aug 10:57:29 11:01:42 33° 289° (WNW) 11:06:00 145.822/145.860
DOVE 4 02 Aug 10:58:08 11:01:04 16° 293° (WNW) 11:03:55 437.250
CUTE 1.7 + AOD 2 02 Aug 10:59:40 11:02:24 16° 294° (WNW) 11:04:58 437.475
QB50P2 02 Aug 11:01:12 11:05:11 44° 73° (ENE) 11:09:14 145.880/145.840
UWE-3 02 Aug 11:01:38 11:06:14 74° 284° (WNW) 11:10:54 435.000/436.395/437.385
Oscar 11 02 Aug 11:07:07 11:11:22 51° 286° (WNW) 11:15:35 145.826/435.025
HO-68 02 Aug 11:08:17 11:14:34 33° 297° (WNW) 11:20:43 435.675
SO-50 02 Aug 11:08:31 11:12:03 19° 319° (NW) 11:15:34 436.795
UKube-1 02 Aug 11:09:01 11:12:29 24° 94° (E) 11:16:00 .
CANX-2 02 Aug 11:09:08 11:10:53 12° 296° (WNW) 11:12:25 2200.000
HUMSAT D 02 Aug 11:11:49 11:15:58 44° 98° (E) 11:20:07 437.325/437.525
O/OREOS (USA 219) 02 Aug 11:12:50 11:17:16 46° 63° (ENE) 11:21:42 437.305
AIST 2 02 Aug 11:15:42 11:17:31 12° 250° (WSW) 11:19:07 435.215
AAUSAT CUBESAT 2 02 Aug 11:17:54 11:20:48 18° 293° (WNW) 11:23:33 437.432
AISAT 02 Aug 11:19:45 11:23:05 21° 93° (E) 11:26:31 437.250
CUBEBUG 2 02 Aug 11:20:02 11:24:21 38° 288° (WNW) 11:28:43 437.445
DUCHIFAT 1 02 Aug 11:24:06 11:28:16 77° 75° (ENE) 11:32:28 145.980
QB50P1 02 Aug 11:28:21 11:32:32 90° 147° (SSE) 11:36:46 145.935-145.965
Cosmos 2491 02 Aug 11:28:25 11:35:16 28° 84° (E) 11:42:24 435.465 / 435.565
NANOSAT C BR1 02 Aug 11:29:03 11:33:14 90° 333° (NNW) 11:37:27 145.865
CUBEBUG 1 02 Aug 11:30:34 11:33:03 15° 91° (E) 11:35:42 437.445
DX 1 02 Aug 11:38:30 11:42:47 56° 100° (E) 11:47:03 434.975-435.025
TIGRISAT 02 Aug 11:38:54 11:42:40 28° 265° (W) 11:46:29 435.000
ANTELSAT 02 Aug 11:41:23 11:45:05 26° 266° (W) 11:48:45 437.575/2403.000
VELOX 1 02 Aug 11:57:40 12:02:00 53° 100° (E) 12:06:19 145.980
ZACube-1 02 Aug 12:12:18 12:15:32 19° 293° (WNW) 12:18:40 437.345
POLYITAN 1 02 Aug 12:12:55 12:16:33 27° 265° (W) 12:20:09 437.675
50 SAT 02 Aug 12:14:00 12:18:00 75° 283° (WNW) 12:21:57 437.505
ESTCUBE 1 02 Aug 12:14:25 12:18:51 58° 100° (E) 12:23:15 437.505/2401.250
AIST 1 02 Aug 12:18:23 12:22:43 72° 97° (E) 12:27:03
BUGSAT 1 02 Aug 12:26:30 12:30:07 30° 264° (W) 12:33:41 437.445
POPSAT HIP 1 02 Aug 12:30:13 12:33:14 19° 268° (W) 12:36:10 437.405
FUNcube-1 02 Aug 12:34:37 12:36:29 12° 296° (WNW) 12:38:08 145.935
QB50P2 02 Aug 12:38:53 12:41:22 15° 270° (W) 12:43:41 145.880/145.840
UKube-1 02 Aug 12:44:50 12:48:38 29° 290° (WNW) 12:52:20 .
HUMSAT D 02 Aug 12:48:31 12:51:23 17° 293° (WNW) 12:54:07 437.325/437.525
YUBILEINY 02 Aug 12:49:52 12:58:20 52° 270° (W) 13:06:44 435.215
O/OREOS (USA 219) 02 Aug 12:53:20 12:56:22 17° 259° (W) 12:59:13 437.305
AISAT 02 Aug 12:55:45 12:59:46 34° 289° (WNW) 13:03:43 437.250
ITAMSAT 1 02 Aug 13:04:48 13:05:55 11° 59° (ENE) 13:07:20 435.822/435.867
CUBEBUG 1 02 Aug 13:05:33 13:09:42 45° 287° (WNW) 13:13:49 437.445
Oscar 19 02 Aug 13:15:42 13:20:35 49° 72° (ENE) 13:25:33 437.125/150
DX 1 02 Aug 13:16:18 13:18:37 14° 296° (WNW) 13:20:45 434.975-435.025
Cosmos 2491 02 Aug 13:22:55 13:31:37 62° 282° (WNW) 13:40:15 435.465 / 435.565
Cosmos 2504 02 Aug 13:30:16 13:38:10 43° 74° (ENE) 13:46:18 435.465 / 435.565
VELOX 1 02 Aug 13:35:35 13:38:09 15° 295° (WNW) 13:40:33 145.980
JAS-2 02 Aug 13:35:44 13:38:05 12° 53° (NE) 13:40:55 435.910
SPROUT 02 Aug 13:36:06 13:40:24 70° 285° (WNW) 13:44:40 437.525
TISAT 1 02 Aug 13:42:26 13:46:40 83° 101° (E) 13:50:54 437.305
SWISSCUBE 02 Aug 13:42:30 13:44:59 14° 89° (E) 13:47:42 437.505
ESTCUBE 1 02 Aug 13:52:48 13:55:17 14° 296° (WNW) 13:57:35 437.505/2401.250
ITUPSAT 1 02 Aug 14:03:19 14:06:54 22° 93° (E) 14:10:37 437.325
AO-7 02 Aug 14:12:48 14:18:15 20° 52° (NE) 14:24:02 29.400- 29.500
Gurwin Techsat 1B 02 Aug 14:25:36 14:30:51 68° 74° (ENE) 14:36:10 435.225
ITAMSAT 1 02 Aug 14:39:29 14:44:41 82° 76° (ENE) 14:49:56 435.822/435.867
Oscar 19 02 Aug 14:56:34 15:00:17 19° 269° (W) 15:03:50 437.125/150
BEESAT 02 Aug 14:57:42 15:02:31 80° 103° (ESE) 15:07:17 436.000
JAS-2 02 Aug 15:15:44 15:21:48 68° 73° (ENE) 15:28:45 435.910
SWISSCUBE 02 Aug 15:18:36 15:23:18 58° 287° (WNW) 15:27:57 437.505
DANDE 02 Aug 15:21:30 15:25:12 41° 79° (E) 15:30:06 436.750
Cosmos 2504 02 Aug 15:22:33 15:30:23 42° 272° (W) 15:38:13 435.465 / 435.565
KKS-1 02 Aug 15:26:46 15:30:32 26° 95° (E) 15:34:20 437.445
Cosmos 2491 02 Aug 15:27:41 15:30:49 12° 307° (NW) 15:33:15 435.465 / 435.565
CUSAT 1 02 Aug 15:30:51 15:35:10 87° 75° (ENE) 15:41:00 437.405
HORYU 2 02 Aug 15:30:59 15:34:58 34° 70° (ENE) 15:39:02 437.375
GONETS M04 02 Aug 15:36:51 15:41:01 15° 57° (ENE) 15:45:44
ITUPSAT 1 02 Aug 15:40:31 15:44:58 39° 290° (WNW) 15:49:22 437.325
AO-7 02 Aug 16:01:39 16:10:01 85° 71° (ENE) 16:18:27 29.400- 29.500
Gurwin Techsat 1B 02 Aug 16:08:22 16:11:25 15° 271° (W) 16:14:13 435.225
SO-50 02 Aug 16:19:50 16:21:20 11° 32° (NNE) 16:23:00 436.795
ITAMSAT 1 02 Aug 16:23:02 16:24:56 11° 273° (W) 16:26:29 435.822/435.867
MOZHAYETS 4 02 Aug 16:28:52 16:31:33 16° 90° (E) 16:34:25
STARS 02 Aug 16:32:04 16:36:31 83° 103° (ESE) 16:40:57 437.465
BEESAT 02 Aug 16:37:54 16:39:45 12° 298° (WNW) 16:41:21 436.000
KKS-1 02 Aug 17:03:17 17:07:08 28° 291° (WNW) 17:10:55 437.445
JAS-2 02 Aug 17:03:21 17:07:46 19° 274° (W) 17:12:16 435.910
Cubesat XI-IV 02 Aug 17:04:52 17:07:36 15° 61° (ENE) 17:10:34 437.490
DANDE 02 Aug 17:05:42 17:08:19 15° 264° (W) 17:11:06 436.750
HORYU 2 02 Aug 17:08:11 17:11:41 22° 267° (W) 17:15:07 437.375
PCSat 02 Aug 17:11:11 17:15:16 22° 45° (NE) 17:19:27 145.827
